User: anonymous   Login
Location: Unspecified
(0.0000°N, 0.0000°E)
Time: 23:04:53
(UTC+00:00)
Language:

STARLINK-30610 - Orbit

View from above orbital plane
View from above orbital plane
View from above satellite
View from above satellite

Ground track
Ground track

The orbit is defined by the following mean orbital elements,

1 58082U          26145.59692567 +.00000000 +00000-0 +13571-3 0 00003
2 58082  43.0038   3.9056 0001777 245.6637 114.4029 15.27574763    09
Epoch (UTC): 25 May 2026 14:19:34
Eccentricity: 0.0001777
inclination: 43.0038°
perigee height: 482 km
apogee height: 484 km
right ascension of ascending node: 3.9056°
argument of perigee: 245.6637°
revolutions per day: 15.27574763
mean anomaly at epoch: 114.4029°

The dashed part of the orbit path shows where the satellite is in the earth's shadow,  

DLR